Hourly Data Report for October 01, 2017

All times are specified in Local Standard Time (LST). Add 1 hour to adjust for Daylight Saving Time where and when it is observed.

ATIKOKAN (AUT)
ONTARIO

48°45'40.000" N
91°37'41.000" W
389.30 m
6020LPQ
71747
WCH

Download Data

Hourly Data (October 2017)
Hourly Data Report for October 1, 2017
Temp Definition
°C
Dew Point Temp Definition
°C
Rel Hum Definition
%
Wind Dir Definition
10's deg

Wind Spd Definition
km/h
Visibility Definition
km
Stn Press Definition
kPa
Hmdx Definition


Wind Chill Definition


Weather Definition


TIME
00:00 12.8 7.4 70 17 4   97.34     LegendNANA
01:00 12.7 8.0 73 18 7   97.31     LegendNANA
02:00 12.7 8.1 73 18 6   97.26     LegendNANA
03:00 12.6 8.3 75 15 5   97.18     LegendNANA
04:00 13.2 8.1 71 18 8   97.14     LegendNANA
05:00 13.3 8.0 70 17 8   97.07     LegendNANA
06:00 12.7 8.6 76 17 9   97.03     LegendNANA
07:00 12.4 8.9 79 18 8   97.06     LegendNANA
08:00 12.5 9.2 81 13 5   97.01     LegendNANA
09:00 13.5 8.9 74 16 7   96.99     LegendNANA
10:00 14.1 9.0 72 17 11   97.00     LegendNANA
11:00 12.6 10.2 85 17 12   96.99     LegendNANA
12:00 12.9 10.4 85 14 6   96.90     LegendNANA
13:00 13.6 10.2 80 12 12   96.78     LegendNANA
14:00 14.4 9.9 75 13 10   96.73     LegendNANA
15:00 14.5 10.6 78 11 7   96.63     LegendNANA
16:00 14.1 9.1 72 15 12   96.72     LegendNANA
17:00 13.9 8.3 69 13 10   96.66     LegendNANA
18:00 13.5 8.4 71 13 12   96.65     LegendNANA
19:00 14.3 8.1 66 14 11   96.63     LegendNANA
20:00 14.6 8.2 65 14 11   96.63     LegendNANA
21:00 14.8 7.9 63 16 7   96.63     LegendNANA
22:00 15.5 7.9 61 15 11   96.62     LegendNANA
23:00 16.0 7.9 59 18 15   96.67     LegendNANA

Notes on Data Quality.

Legend

  • E = Estimated
  • M = Missing
  • NA = Not Available
  • ‡ = Partner data that is not subject to review by the National Climate Archives
Date modified: